BREEZE-M R/B

基本信息
目录编号:
36102
目录名称:
BREEZE-M R/B
国际标识:
2009-065B
轨道中心:
EARTH
物体状态:
在轨
发射日期:
2009-11-24 UTC
国别:
俄罗斯(独联体) (CIS)
轨道信息
数据来源: 国际轨道数据
星历时间: 2026-07-12T17:09:35+0800
半长轴: 24905.641km
偏心率: 0.5915231
轨道倾角: 20.369°
近地点辐角: 257.021°
升交点赤经: 220.351°
平近点角: 34.247°
近地点: 3795.242km
远地点: 33259.766km
周期: 651.938分钟
每日圈数: 2.208799
详细信息
发射场:
TTMTR
轨道高度:
MEO
数据来源:
AOE Integration Group
参考系:
TEME
时间系统:
UTC
历元类型:
SGP4
2D轨道图
3D轨道图
轨道高度分析图
轨道倾角分析图
轨道综合分析图
查看轨道综合分析图